Theta_e
303 303 304 304 304 304 304 304 304 307 309 307 309 309 308 306 306 309 309 309 309 313 315 314 318 319 318 316 316 311 315 316 317 318 321 330 330 320 333 336 340 350 352 349 347
303 303 304 304 305 305 304 304 304 306 310 311 310 309 307 307 309 311 309 309 309 310 313 312 314 315 313 315 316 315 314 315 315 319 320 320 318 320 329 339 340 354 351 348 347
304 304 304 304 305 305 304 304 304 305 310 311 311 309 306 308 310 306 316 313 312 310 311 312 313 313 316 313 314 314 315 315 318 321 321 320 320 319 322 332 342 353 354 350 347
303 303 304 304 305 305 305 304 304 305 309 311 309 308 307 312 307 311 313 313 313 311 311 315 313 311 310 314 312 315 313 316 317 319 318 318 318 318 319 319 334 343 351 351 349
303 304 304 304 305 305 304 305 305 306 309 311 309 307 309 309 307 309 313 315 317 312 312 311 312 311 313 311 312 313 313 313 314 314 314 316 317 318 318 318 321 350 351 351 349
304 304 304 304 306 305 306 306 306 306 308 311 309 307 312 308 309 310 311 318 316 313 313 312 311 311 312 312 312 313 312 313 313 313 314 316 317 317 319 318 320 352 353 351 350
304 304 304 304 306 306 307 309 312 311 308 311 307 310 311 307 310 310 310 317 315 312 311 313 313 313 311 313 311 311 312 311 311 313 314 314 316 319 321 318 331 350 352 352 351
304 304 304 305 306 307 311 314 314 315 311 309 307 313 306 310 311 311 312 314 316 312 314 313 314 311 312 311 309 312 310 312 311 314 314 314 315 316 321 324 343 349 353 353 351
304 304 304 306 307 309 312 313 313 310 308 307 312 311 309 312 312 317 315 313 314 315 315 312 312 311 310 309 308 307 311 311 312 312 315 315 315 316 321 332 341 347 352 354 352
304 305 305 307 308 312 310 311 312 313 311 312 314 310 311 313 317 318 316 314 313 311 312 311 305 306 304 306 309 310 311 310 312 313 312 312 313 314 324 324 324 329 343 352 351
305 305 307 308 310 311 309 309 303 304 309 307 309 310 311 313 314 317 314 314 314 312 311 309 307 307 307 307 309 310 310 311 311 311 313 311 311 312 320 322 326 327 330 335 341
305 305 309 309 311 311 309 304 306 306 303 305 306 307 310 312 313 312 315 314 313 313 309 308 308 308 308 308 309 310 310 309 309 309 310 310 310 310 312 318 324 327 328 333 334
305 307 309 310 309 309 310 308 308 308 306 309 311 311 311 311 312 312 314 312 311 310 308 309 311 309 310 310 309 309 309 310 310 310 310 310 310 312 312 313 316 323 326 330 333
305 308 309 310 309 308 307 307 307 308 308 311 316 313 312 312 314 314 313 312 310 310 308 308 308 310 310 311 309 310 309 311 311 311 311 310 310 310 310 313 314 319 323 325 328
305 309 309 308 308 307 306 307 309 310 310 314 313 313 309 311 311 313 311 311 313 311 309 311 311 310 310 309 310 310 311 311 312 311 310 311 310 310 310 311 312 314 315 321 323
305 309 307 308 306 306 307 309 310 313 315 314 310 310 309 309 311 310 309 308 310 312 311 310 311 312 311 312 311 313 314 311 308 309 312 312 310 310 310 312 313 313 314 317 320
305 308 307 307 304 307 308 308 310 315 309 309 309 311 309 308 310 309 310 307 309 314 313 314 315 313 315 315 313 313 312 314 314 313 316 312 309 312 312 311 312 312 313 313 316
305 307 307 304 304 308 308 308 314 309 307 308 308 311 308 308 309 308 309 309 306 311 312 317 317 314 314 318 319 315 310 313 317 315 315 311 313 312 311 313 317 313 310 310 311
305 308 307 304 305 309 304 305 305 306 306 307 307 309 307 306 307 311 306 306 306 309 312 312 315 312 317 314 315 318 312 311 313 313 313 312 313 315 319 319 319 319 316 313 312
304 305 307 303 306 306 302 306 305 305 306 306 307 306 305 304 306 310 309 304 305 307 308 308 311 312 312 314 311 315 311 317 312 317 317 314 315 320 322 321 319 319 319 317 316
303 302 305 304 305 300 302 304 305 304 306 305 306 303 303 303 302 303 305 302 303 305 307 306 310 310 311 310 310 315 310 310 315 314 315 315 315 322 320 318 318 318 320 317 317
300 301 304 304 300 296 300 302 305 302 302 303 302 303 303 300 302 302 305 302 302 307 306 302 307 308 309 306 305 305 305 307 317 320 314 313 315 319 318 316 316 316 315 319 318
298 299 304 303 300 299 300 303 303 303 302 302 302 302 300 300 299 301 302 301 301 306 302 300 301 302 298 307 307 306 303 303 306 310 317 323 319 308 312 315 315 315 315 314 318
297 301 298 295 296 300 301 303 304 303 302 301 301 300 300 300 299 299 300 301 300 301 303 302 303 300 296 302 307 306 304 302 306 310 310 310 313 310 310 312 315 312 314 314 315
295 298 297 299 299 299 300 301 304 304 302 300 301 301 300 299 299 298 299 299 299 301 300 296 298 303 304 303 302 303 303 300 301 302 305 308 305 304 309 313 310 309 314 315 317
297 297 295 297 298 299 300 301 304 304 302 301 302 302 300 299 299 300 300 299 299 299 298 296 296 301 301 301 302 302 300 300 300 299 300 300 301 301 305 305 307 309 316 315 320
299 298 296 297 298 299 299 302 302 302 302 302 302 301 301 301 300 299 297 297 298 297 296 296 296 297 300 300 300 300 299 300 300 299 299 298 299 306 304 305 305 310 316 316 313
Wind_Speed
29 29 27 27 25 23 21 19 18 16 15 14 13 14 12 11 11 10 9 16 14 11 14 7 8 8 4 1 3 4 3 4 7 7 4 2 2 3 1 2 4 7 6 6 30
30 31 29 29 26 23 21 18 16 15 14 13 13 12 9 8 10 13 24 15 17 14 22 7 5 7 2 3 1 4 3 10 7 5 3 3 4 3 2 4 5 7 6 23 26
32 32 31 32 28 23 20 18 15 14 14 12 11 9 6 6 3 7 4 8 8 20 13 13 10 6 4 2 3 5 6 6 4 4 3 3 5 3 6 2 7 12 11 17 19
36 36 34 34 29 23 20 16 15 14 12 12 9 4 1 2 4 2 5 16 15 23 17 9 5 7 5 5 4 2 7 5 4 4 2 5 2 6 5 12 7 7 12 13 18
37 37 36 36 30 24 19 18 17 13 10 10 7 3 3 2 9 4 14 7 9 26 20 7 6 6 7 5 2 4 5 5 8 9 8 2 9 7 9 12 3 11 16 17 19
40 38 38 37 31 23 22 18 15 13 10 8 4 7 5 3 4 5 16 3 11 23 14 9 8 7 5 5 5 5 4 6 6 8 5 5 7 7 12 6 5 13 18 19 20
40 40 41 38 32 25 21 16 16 14 10 6 6 5 4 13 5 9 17 5 14 20 7 14 7 6 6 1 3 4 5 6 4 5 7 8 6 13 25 6 7 11 12 14 18
43 42 41 36 27 23 19 14 14 11 4 3 8 3 6 7 12 15 7 3 10 17 5 10 7 4 3 1 6 3 3 1 5 2 6 9 9 8 17 13 8 9 11 13 14
44 44 43 34 25 19 15 9 10 8 4 8 3 2 9 7 6 6 9 5 10 10 6 8 6 3 2 4 4 5 3 4 6 3 3 6 5 4 4 13 3 6 10 15 14
46 46 41 30 21 12 13 6 7 4 6 0 3 4 6 1 3 5 2 12 5 6 3 2 4 3 3 4 6 5 4 4 4 3 4 6 6 7 2 9 9 3 6 12 13
48 47 36 25 13 10 11 3 6 4 2 6 9 5 11 10 10 6 4 8 5 4 5 4 3 6 10 8 7 5 4 5 3 5 2 7 5 10 9 6 16 16 9 8 16
49 46 30 22 10 12 16 7 6 8 11 10 13 11 23 7 6 3 7 6 5 7 5 3 6 11 8 3 6 5 5 5 6 5 5 5 9 10 8 10 16 26 29 15 10
48 39 26 15 14 18 6 7 18 12 3 8 5 4 6 8 6 7 7 4 6 4 7 8 7 5 7 5 5 4 5 4 8 5 3 3 7 5 7 9 10 18 24 15 18
47 32 20 10 4 16 4 28 28 2 4 7 5 5 4 5 1 3 4 7 2 11 7 5 5 8 5 6 8 6 8 8 6 2 4 4 5 6 7 9 8 15 15 19 17
47 26 15 17 8 4 23 28 10 4 4 9 6 6 8 7 8 6 13 3 6 5 6 9 5 6 6 8 8 8 7 8 5 5 3 4 2 7 3 6 10 11 12 11 16
46 18 18 12 14 23 29 17 2 5 5 7 5 9 7 9 8 7 9 10 3 3 2 6 3 5 8 6 7 5 4 5 5 3 2 5 7 5 5 7 5 7 13 8 12
46 14 15 11 13 29 18 3 4 3 6 7 5 7 5 7 7 10 6 12 7 8 8 8 3 5 7 3 4 4 5 2 3 0 10 2 5 8 8 9 9 9 10 8 7
46 16 8 24 35 18 4 5 3 3 3 3 5 3 5 7 5 8 3 5 7 4 2 5 3 8 9 1 3 4 8 6 6 5 7 4 6 6 8 7 10 8 7 8 7
41 13 14 37 25 8 5 5 3 2 4 6 4 4 4 5 4 5 6 6 4 5 3 5 5 4 3 4 1 3 3 6 2 1 3 4 7 2 14 13 15 13 9 8 8
25 10 12 41 14 5 5 3 1 3 4 4 1 4 4 6 6 5 2 4 5 7 0 2 5 3 6 3 6 5 3 2 2 4 4 4 2 3 12 13 14 15 13 11 8
10 4 23 33 7 6 4 1 2 4 3 4 2 2 2 3 2 4 3 3 4 4 4 2 2 6 4 5 3 4 4 4 2 3 4 3 2 3 5 7 9 10 10 10 10
10 4 27 23 5 3 2 5 5 4 5 4 3 3 1 3 3 1 2 2 5 3 2 3 3 2 3 8 14 9 4 3 1 2 1 2 4 6 7 8 7 11 13 11 11
3 3 15 15 4 4 6 4 3 3 3 2 1 1 1 1 3 1 2 3 4 2 1 2 2 2 6 3 3 5 4 3 2 1 4 5 4 8 12 12 12 11 12 13 12
3 4 4 5 2 3 4 4 5 4 2 3 2 4 2 1 1 3 2 1 2 2 4 4 2 4 5 3 1 4 10 4 2 1 5 6 6 9 13 12 12 15 15 12 12
4 0 2 4 3 2 1 3 4 6 5 6 2 2 2 2 2 3 2 3 3 3 3 4 3 3 5 5 6 8 11 7 8 7 6 4 12 13 13 8 11 9 13 15 12
2 3 4 1 3 4 3 2 3 4 3 3 4 8 4 4 4 4 1 2 5 2 2 2 2 3 4 10 9 12 12 13 11 10 18 15 23 13 9 6 7 14 10 13 10
4 3 2 2 3 2 2 2 2 4 4 2 3 3 3 2 4 7 7 6 7 6 5 5 4 2 3 2 4 8 17 14 6 6 7 9 13 8 5 8 5 7 11 7 10
Wind_Direction
4 0 357 352 346 344 340 337 336 337 337 334 329 324 318 306 295 274 235 241 226 194 147 63 151 169 167 256 181 129 80 185 192 169 237 346 33 311 209 266 236 197 152 183 149
4 360 356 352 347 342 339 336 334 332 332 327 324 327 325 311 303 254 274 249 229 206 218 172 146 138 139 203 219 136 156 204 201 199 167 218 244 271 240 239 221 192 98 127 140
4 360 356 352 347 342 338 333 330 326 326 325 320 322 319 327 314 246 57 104 237 215 193 189 141 125 176 136 210 176 202 202 248 226 224 206 251 235 292 235 220 192 160 141 140
5 1 356 353 349 344 337 331 324 319 318 321 322 308 303 358 307 45 322 307 293 204 196 138 114 123 148 192 210 200 227 222 212 211 206 263 226 287 240 260 224 200 147 145 158
4 360 355 354 350 344 343 329 317 308 304 312 311 190 123 27 252 315 359 326 167 178 175 146 133 140 163 191 180 211 237 214 227 236 255 243 252 243 256 266 312 143 156 168 168
1 358 354 352 349 345 340 331 319 301 290 301 264 163 121 279 259 251 2 10 166 163 167 147 175 178 160 190 168 225 227 246 262 256 231 204 256 156 261 240 256 165 178 171 176
0 357 352 351 348 344 343 339 323 296 272 271 190 159 124 237 261 285 309 285 179 172 158 195 166 143 141 201 231 256 289 303 238 246 212 180 255 200 243 243 209 195 188 192 187
359 355 350 349 348 344 347 346 347 333 255 199 164 171 239 266 296 286 260 184 183 175 104 202 192 93 151 235 11 336 64 311 279 6 244 158 249 225 249 214 211 204 180 190 188
358 355 349 348 348 348 359 26 19 32 80 128 157 224 270 299 276 339 223 165 150 182 190 134 137 170 107 103 9 352 235 224 308 246 257 175 257 300 218 169 342 272 196 183 191
356 353 349 348 349 359 5 27 33 34 80 118 266 306 280 267 338 356 12 159 117 106 73 112 59 104 45 106 210 223 223 241 221 286 44 313 273 313 297 128 169 203 247 200 188
356 351 350 354 8 30 26 28 9 355 337 224 243 254 291 290 293 198 99 132 120 116 165 189 127 194 217 198 203 210 202 230 248 240 253 254 255 271 237 240 199 222 207 224 199
357 350 352 358 45 39 57 90 117 289 302 250 253 250 258 287 306 318 180 149 142 195 133 71 218 224 218 178 194 202 239 270 274 261 175 269 271 260 218 224 212 206 234 205 211
357 354 356 2 43 26 63 47 342 343 274 299 222 231 281 136 199 278 180 178 176 190 185 181 221 185 177 183 165 207 189 224 234 297 252 276 292 232 265 213 218 224 218 201 194
357 355 5 18 40 356 347 329 331 170 39 287 347 346 2 127 264 228 265 171 190 204 201 217 242 198 181 213 167 236 210 231 249 135 256 152 280 252 256 233 222 219 218 215 200
357 353 10 27 345 15 319 328 338 115 338 332 355 336 340 77 307 8 38 305 223 197 119 232 200 186 196 212 177 223 207 205 215 209 71 240 230 269 293 260 250 248 244 218 194
354 358 12 359 352 332 332 332 119 46 257 353 13 354 14 1 5 313 11 23 11 355 333 237 212 178 219 235 193 198 145 52 52 108 253 189 183 264 215 208 250 218 250 225 195
350 344 2 14 331 337 337 28 40 156 347 356 332 348 38 350 7 10 58 50 29 5 18 342 317 355 29 28 9 120 78 297 313 161 248 231 137 234 242 238 230 228 246 258 196
345 343 10 2 347 338 10 53 191 13 344 359 341 330 46 357 357 8 57 42 20 38 8 16 327 13 336 339 250 212 165 166 228 209 258 123 232 252 253 16 5 345 305 303 306
343 1 14 351 348 1 70 63 188 293 303 341 317 19 359 344 335 47 46 357 51 26 63 15 275 341 345 344 18 314 181 155 177 355 96 230 288 303 4 1 357 347 344 339 327
338 336 359 348 353 61 73 126 83 344 343 38 45 13 357 335 2 22 70 1 2 356 170 121 287 22 295 335 14 69 352 67 7 208 234 268 281 301 347 341 342 342 340 333 330
345 19 354 354 27 50 95 5 334 2 51 33 28 32 52 332 302 358 1 52 354 331 87 29 162 305 341 41 282 336 23 360 125 139 196 214 273 331 304 311 324 330 326 325 336
345 13 356 0 48 30 54 318 314 344 10 39 82 69 75 358 322 20 88 83 320 342 43 21 142 292 259 88 57 65 48 47 66 207 225 178 244 332 323 313 332 342 340 336 343
352 280 358 21 67 4 317 313 345 4 9 54 92 82 46 358 322 30 26 197 53 105 133 308 352 5 351 347 39 50 47 35 232 12 237 166 216 32 356 342 340 345 342 336 349
31 356 340 35 49 92 5 305 328 352 34 14 81 54 71 284 289 295 268 315 316 215 77 96 139 168 194 230 175 290 317 351 107 230 334 258 319 348 343 335 336 341 334 338 336
27 321 181 330 359 358 256 334 339 357 353 24 59 73 196 259 285 279 278 310 289 250 96 116 208 206 238 270 279 268 284 271 235 219 224 267 308 307 313 309 318 310 339 333 343
46 21 360 301 305 341 5 28 33 339 305 344 53 314 261 228 222 258 242 237 246 334 110 19 245 189 262 237 242 267 259 253 256 247 254 264 272 264 259 272 335 325 321 338 336
21 27 98 329 345 6 250 81 0 352 283 78 348 312 240 213 276 236 220 230 234 203 196 169 167 127 268 193 236 274 250 231 223 216 228 244 265 272 279 291 301 310 299 303 334